Location: *
(24.1434°N, 56.8729°E)
Time: 07:51:00
(UTC+00:00)

Cosmos 2184 Rocket - Pass Details

Date: 09 April 2020
Orbit: 958 x 1003 km, 82.9° (Epoch: 29 May)

Event Time Altitude Azimuth Distance (km) Brightness Sun altitude
Rises 15:37:02 0° 358° (N) 3,675 7.3 -15.3°
Reaches altitude 10° 15:39:35 10° 1° (N) 2,719 6.5 -15.9°
Maximum altitude 15:45:47 71° 85° (E) 1,015 3.9 -17.2°
Drops below altitude 10° 15:51:54 10° 169° (S) 2,685 6.0 -18.6°
Enters shadow 15:54:03 - 171° (S) 3,495 6.6 -19.0°
